Regional Weather Roundup
Issued by NWS

Home | Current Version | Previous Version | Graphics & Text | Print | Product List | Glossary On
Versions: 1 2 3 4 5 6 7 8 9 10 11 12 13 14 15 16 17 18 19 20 21 22 23 24 25 26 27
000
ASUS45 KSLC 191910
RWRUT

UTAH REGIONAL WEATHER ROUNDUP
NATIONAL WEATHER SERVICE SALT LAKE CITY UT
1200 PM MST FRI JAN 19 2018

UTZ001>011-023>025-192000-

NORTHERN UTAH

CITY           SKY/WX    TMP DP  RH WIND       PRES   REMARKS
BRIGHAM CITY   CLOUDY    43  32  64 N10       29.82F
HILL AFB       CLOUDY    46  29  51 N3        29.81F
LOGAN          CLOUDY    42  33  70 CALM      29.83R
OGDEN          CLOUDY    48  30  49 CALM      29.80F
SALT LAKE CITY CLOUDY    57  29  34 S21       29.79F
TOOELE VALLEY  CLOUDY    55  32  41 S20G28    29.80S
WENDOVER       CLOUDY    43  30  60 S9        29.82F
HEBER CITY     MOCLDY    50  27  40 SW21      29.83F
WEST JORDAN    CLOUDY    52  31  44 SE18G25   29.81F

$$

UTZ011>015-024>027-192000-

CENTRAL/NORTHEAST UTAH

CITY           SKY/WX    TMP DP  RH WIND       PRES   REMARKS
PROVO AIRPORT  CLOUDY    53  31  42 CALM      29.85F
MOAB/CANYONLAN CLOUDY    37  26  64 NW5       29.99F WCI  33
DELTA          CLOUDY    52  28  40 S18G25    29.87F
PRICE          CLOUDY    38  22  52 CALM      29.98F
RICHFIELD      SUNNY     57  25  28 SW13      29.87F
ROOSEVELT      CLOUDY    34  19  55 CALM      29.97F
VERNAL         CLOUDY    33  20  58 E3        29.94F

$$

UTZ013>016-019>022-027-192000-

SOUTHERN UTAH

CITY           SKY/WX    TMP DP  RH WIND       PRES   REMARKS
BRYCE CANYON   MOSUNNY   42  25  50 SE17      30.02F
CEDAR CITY     MOSUNNY   56  28  34 S24G35    29.93F
MILFORD        PTSUNNY   55  29  36 S31G41    29.86F
ST GEORGE      CLOUDY    52  34  50 SW5       29.96F
HANKSVILLE     CLOUDY    36  18  48 CALM      30.02F
KANAB          SUNNY     55  23  28 S10       30.04F
BLANDING         N/A     44  19  36 S5        30.15F

$$

REGIONAL REPORTS     COLORADO/ARIZONA

CITY           SKY/WX    TMP DP  RH WIND       PRES   REMARKS
CRAIG, CO      PTSUNNY   39  22  50 SE6       29.90F WCI  35
GRAND JUNCTION MOSUNNY   39  23  52 NW6       29.99F WCI  35
RIFLE, CO      MOSUNNY   40  19  43 CALM      29.99F
MONTROSE, CO   MOSUNNY   44  18  35 NW3       30.02F
CORTEZ, CO     MOSUNNY   50  21  32 CALM      30.08F
COLORADO CITY    N/A     59  27  29 SE9       30.03F
PAGE, AZ       SUNNY     47  26  44 N6        30.02F
GRAND CANYON   SUNNY     52  21  29 SW21G28   30.09F
KINGMAN, AZ    SUNNY     67  26  21 SW20G29   29.99F
FLAGSTAFF, AZ  SUNNY     49  17  28 SW16      30.12F

$$

REGIONAL REPORTS    NEVADA/IDAHO/WYOMING

CITY           SKY/WX    TMP DP  RH WIND       PRES   REMARKS
LAS VEGAS, NV  PTSUNNY   68  35  29 S13G22    29.90F
ELY, NY        CLOUDY    47  26  44 S20       29.86F
ELKO, NV       LGT SNOW  32  29  88 SW6       29.96R VSB 3/4 WCI  26
POCATELLO, ID  LGT SNOW  35  33  92 W14       29.87R FOG     WCI  26
BURLEY, ID     CLOUDY    36  33  89 W15G26    29.90F WCI  27
FORT BRIDGER,    N/A     51  25  36 SW24G40   29.82F
EVANSTON, WY   CLOUDY    44  29  55 SW21G36   29.82F
ROCK SPRINGS,  SUNNY     49  22  34 SW12      29.79F

$$




USA.gov is the U.S. government's official web portal to all federal, state and local government web resources and services.